www.pogodaiklimat.ru
ПОГОДА в Мадрид аэропорту
Время
(UTC), дата
13 14.01
14 14.01
15 14.01
16 14.01
17 14.01
18 14.01
19 14.01
20 14.01
21 14.01
22 14.01
23 14.01
00 15.01
01 15.01
02 15.01
03 15.01
04 15.01
05 15.01
06 15.01
07 15.01
08 15.01
09 15.01
10 15.01
11 15.01
12 15.01
13 15.01
14 15.01
15 15.01
16 15.01
17 15.01
18 15.01
19 15.01
20 15.01
21 15.01
22 15.01
23 15.01
00 16.01
01 16.01
02 16.01
03 16.01
04 16.01
05 16.01
06 16.01
07 16.01
08 16.01
09 16.01
10 16.01
11 16.01
12 16.01
13 16.01
14 16.01
15 16.01
16 16.01
17 16.01
18 16.01
19 16.01
20 16.01
21 16.01
22 16.01
23 16.01
00 17.01
01 17.01
02 17.01
03 17.01
04 17.01
05 17.01
06 17.01
07 17.01
08 17.01
09 17.01
10 17.01
11 17.01
12 17.01
13 17.01
14 17.01
15 17.01
16 17.01
17 17.01
18 17.01
19 17.01
20 17.01
21 17.01
22 17.01
23 17.01
00 18.01
01 18.01
02 18.01
03 18.01
04 18.01
05 18.01
06 18.01
07 18.01
08 18.01
09 18.01
10 18.01
11 18.01
12 18.01
13 18.01
14 18.01
15 18.01
16 18.01
17 18.01
18 18.01
19 18.01
20 18.01
21 18.01
22 18.01
23 18.01
00 19.01
01 19.01
02 19.01
03 19.01
04 19.01
05 19.01
06 19.01
07 19.01
08 19.01
09 19.01
10 19.01
11 19.01
12 19.01
13 19.01
14 19.01
15 19.01
16 19.01
17 19.01
18 19.01
19 19.01
20 19.01
21 19.01
22 19.01
23 19.01
00 20.01
01 20.01
02 20.01
03 20.01
04 20.01
05 20.01
06 20.01
07 20.01
08 20.01
09 20.01
10 20.01
11 20.01
12 20.01
13 20.01
14 20.01
15 20.01
16 20.01
17 20.01
18 20.01
19 20.01
20 20.01
21 20.01
22 20.01
23 20.01
00 21.01
01 21.01
02 21.01
03 21.01
04 21.01
05 21.01
06 21.01
07 21.01
08 21.01
09 21.01
10 21.01
11 21.01
12 21.01
13 21.01
Ветер
(напр.,м/с)
Видим. Явления Облачность Т
(С)
Тd
(С)
f
(%)
Тe
(С)
Тes
(С)
Комфортность P
(гПа)
Po
(гПа)
Тmin
(С)
Tmax
(С)
R
(мм)
R24
(мм)
S
(см)
СЗ 1 15 км 5/0
[Ci sp]
-0.3 -5.2 69 -2 +3 по сезону 1029.7 958.0
З 1 20 км 8/0
[Ac As Ci]
+2.9 -4.9 56 +3 +6 тепло 1028.2 957.4
ЮВ 2 15 км 8/0
[Ci sp]
+3.3 -4.2 58 +1 +3 холодно 1028.2 957.5
ЮВ 1 20 км 8/0
[Cs]
+3.6 -5.1 53 +3 +3 по сезону 1028.1 957.5
штиль 0 19 км 8/0
[Cs]
+1.1 -4.5 66 0 0 прохладно 1029.2 957.8
штиль 0 17 км 6/0
[Cs]
-1.9 -5.8 75 -3 -3 очень
холодно
1030.3 958.1 +4.4
ЮВ 2 10 км 6/0
[Cs]
-2.1 -5.5 77 -6 -6 очень
холодно
1030.5 958.3
ЮВ 2 9000 м дымка 8/0
[Ci sp]
-2.1 -5.3 79 -6 -6 очень
холодно
1031.1 958.8
Ю 1 9000 м дымка 1/0
[Ci sp]
-2.9 -5.5 82 -5 -5 очень
холодно
1031.3 958.8
ЮВ 3 8000 м дымка ясно -3.3 -5.5 85 -8 -8 очень
холодно
1031.8 959.2
ЮВ 2 8000 м дымка ясно -4.2 -6.1 87 -8 -8 холодно 1032.2 959.3
ЮВ 1 8000 м дымка 1/0
[Ci sp]
-4.9 -6.8 87 -7 -7 очень
холодно
1032.4 959.3
ЮВ 1 7000 м дымка 1/0
[Ci sp]
-5.4 -7.3 86 -8 -8 холодно 1032.4 959.1
ЮВ 1 5000 м дымка ясно -6.5 -8.0 89 -9 -9 холодно 1032.6 959.1
штиль 0 4000 м дымка ясно -7.1 -8.1 93 -8 -8 очень
холодно
1032.8 959.1
С 1 4000 м дымка ясно -7.4 -8.5 92 -10 -10 очень
холодно
1032.7 958.9
С 2 5000 м дымка ясно -8.1 -9.2 92 -12 -12 холодно 1033.0 959.0
Ю 1 2800 м дымка ясно -8.4 -9.4 92 -9 -9 очень
холодно
1033.3 959.2 -8.7
штиль 0 6000 м дымка ясно -8.2 -9.2 92 -9 -9 холодно 1033.2 959.2
СЗ 2 30 км ясно -8.7 -9.8 92 -12 -12 холодно 1034.1 959.9
штиль 0 30 км ясно -6.4 -7.5 92 -7 -6 очень
холодно
1033.9 960.3
штиль 0 10 км 1/0
[Ci fib]
-4.9 -6.9 86 -6 -2 холодно 1033.8 960.6
ЮВ 2 30 км 1/0
[Ci fib]
-1.1 -5.1 74 -5 -0 прохладно 1032.5 960.4
ЮВ 2 30 км 4/0
[Ci sp]
+1.9 -3.0 70 -1 +4 очень
холодно
1031.0 959.7
ЮВ 3 30 км 4/0
[Ci sp]
+2.5 -2.8 68 -1 +3 холодно 1030.3 959.2
ЮВ 2 20 км 4/0
[Ci sp]
+3.5 -1.9 68 +1 +4 прохладно 1029.3 958.6
ЮВ 1 30 км 3/0
[Ci sp]
+5.4 -1.4 62 +5 +7 по сезону 1028.7 958.5
В 1 20 км ясно +6.3 -1.1 59 +6 +6 по сезону 1028.3 958.4
ЮВ 1 10 км 1/0
[Ci fib]
+3.0 -1.8 71 +2 +2 по сезону 1029.1 958.3
ЮВ 2 7000 м ясно +1.0 -2.3 79 -2 -2 очень
холодно
1030.0 958.6 +6.9
В 1 5000 м ясно -1.2 -3.1 87 -3 -3 холодно 1031.0 959.0
ЮВ 1 4000 м ясно -2.0 -3.5 89 -4 -4 холодно 1031.3 959.1
штиль 0 2500 м дымка 1/0
[Ci fib]
-2.9 -3.7 94 -4 -4 холодно 1031.5 959.0
С 2 2600 м дымка 1/0
[Ci fib]
-4.2 -5.0 94 -8 -8 очень
холодно
1032.1 959.2
СЗ 2 1500 м дымка ясно -4.9 -5.5 96 -9 -9 очень
холодно
1032.5 959.4
С 2 2000 м дымка 1/1 50 м
[Frnb]
-4.7 -5.4 95 -8 -8 очень
холодно
1032.4 959.3
СЗ 1 1500 м дымка ясно -5.3 -5.8 96 -8 -8 холодно 1032.1 958.9
штиль 0 4200 м дымка ясно -6.7 -7.6 93 -8 -8 прохладно 1032.4 958.9
Ю 1 800 м дымка ясно -7.1 -7.7 95 -8 -8 очень
холодно
1032.6 958.9
штиль 0 1500 м дымка ясно -7.7 -8.7 93 -8 -8 холодно 1032.9 959.0
штиль 0 1300 м дымка 1/1
[St]
-8.0 -8.9 93 -9 -9 прохладно 1032.9 959.0
штиль 0 3000 м дымка ясно -8.4 -9.5 92 -9 -9 очень
холодно
1033.3 959.2 -8.7
С 1 2500 м дымка 5/0
[Ac trans Ci sp]
-9.1 -10.3 91 -10 -10 холодно 1033.7 959.4
штиль 0 5000 м дымка 1/0
[Ci fib]
-9.2 -10.6 90 -10 -10 прохладно 1034.2 959.8
штиль 0 4000 м дымка 1/0
[Ci sp]
-6.5 -7.4 93 -7 -6 очень
холодно
1034.0 960.4
С 1 3800 м дымка 1/0
[Ci sp]
-4.0 -6.2 85 -5 -1 холодно 1033.8 960.8
ЮЗ 1 5000 м дымка 1/0
[Ci sp]
-0.7 -4.5 75 -1 +4 по сезону 1033.1 961.1
штиль 0 8000 м дымка 1/0
[Ci sp]
+2.4 -3.9 63 +2 +9 прохладно 1031.7 960.5
штиль 0 10 км 1/0
[Ci sp]
+4.0 -2.6 62 +3 +10 по сезону 1030.4 959.7
СЗ 2 11 км 3/0
[Ac As Ci sp]
+3.9 -1.5 68 +2 +6 по сезону 1029.8 959.1
ЮВ 3 11 км 3/0
[Ac As Ci sp]
+4.9 -1.7 62 +2 +3 прохладно 1029.7 959.3
ЮВ 2 11 км 1/0
[Ac As]
+4.8 -1.8 62 +3 +3 по сезону 1030.0 959.6
ЮВ 2 10 км ясно +3.0 -1.8 71 0 0 по сезону 1031.0 960.0
ЮВ 2 8000 м дымка н/о +0.9 -2.9 76 -2 -2 холодно 1031.9 960.4 +5.9
ЮВ 1 7000 м дымка ясно -1.0 -3.0 86 -3 -3 холодно 1032.9 960.8
штиль 0 6000 м дымка ясно -2.6 -4.1 89 -4 -4 холодно 1033.8 961.2
СЗ 1 6000 м ясно -3.1 -4.4 91 -6 -6 очень
холодно
1034.0 961.3
С 2 2100 м дымка н/о -3.8 -4.7 93 -7 -7 очень
холодно
1034.7 961.7
С 1 30 км 3/0
[Ci sp]
-4.3 -5.1 94 -7 -7 холодно 1035.0 961.9
С 2 30 км ясно -5.5 -6.5 93 -9 -9 очень
холодно
1035.3 961.9
С 1 3100 м дымка н/о -6.1 -7.0 93 -9 -9 холодно 1035.1 961.5
С 2 2000 м 4/0
[Ci sp]
-7.0 -8.2 91 -11 -11 холодно 1034.9 961.1
С 2 3200 м дымка н/о -6.4 -7.3 93 -10 -10 очень
холодно
1034.8 961.2
СВ 1 20 км ясно -7.8 -9.1 90 -10 -10 холодно 1034.9 960.9
СЗ 2 20 км 4/0
[Ci sp]
-8.2 -9.2 92 -12 -12 холодно 1035.0 960.8
С 2 7000 м 4/0
[Ci sp]
-8.1 -9.2 92 -13 -13 очень
холодно
1035.4 961.2 -9.1
СВ 1 7000 м 3/0
[Ci fib]
-8.7 -9.7 92 -11 -11 холодно 1035.7 961.3
С 2 4000 м 4/0
[Ci fib]
-9.1 -10.1 92 -13 -13 холодно 1036.1 961.6
С 1 4000 м 3/0
[Ci fib]
-6.7 -7.5 94 -9 -8 очень
холодно
1035.8 962.0
штиль 0 4000 м дымка 3/0
[Ci fib]
-4.5 -6.7 85 -5 -2 прохладно 1035.4 962.2
С 1 10 км 3/0
[Ci fib]
-1.4 -5.9 71 -3 +2 по сезону 1035.0 962.6
ЮЗ 1 10 км 1/0
[Ci fib]
+1.3 -5.5 60 -0 +6 холодно 1033.1 961.6
Ю 1 10 км 1/0
[Ci fib]
+4.1 -4.9 52 +5 +11 по сезону 1031.1 960.4
ЮВ 1 20 км 1/0
[Ci fib]
+6.0 -5.6 43 +6 +10 тепло 1029.8 959.6
ЮВ 2 20 км 1/0
[Ci fib]
+5.4 -4.5 49 +4 +6 по сезону 1029.8 959.5
ЮВ 2 20 км 1/0
[Ci fib]
+5.5 -4.1 50 +4 +5 по сезону 1029.8 959.5
ЮВ 2 20 км 1/0
[Ac lent]
+4.3 -3.5 57 +3 +3 по сезону 1030.2 959.6
ЮВ 1 10 км 1/0
[Ac lent]
+0.5 -4.0 72 0 0 прохладно 1031.7 960.1 +6.0
С 1 10 км ясно -1.0 -4.4 78 -1 -1 прохладно 1032.5 960.4
СЗ 1 10 км ясно -1.6 -5.1 77 -4 -4 прохладно 1032.5 960.3
С 3 7000 м дымка ясно -2.2 -4.6 84 -7 -7 очень
холодно
1032.6 960.2
С 1 7000 м дымка ясно -3.3 -5.6 84 -6 -6 холодно 1033.0 960.3
С 2 7000 м дымка ясно -3.7 -5.3 89 -8 -8 холодно 1033.4 960.5
С 2 7000 м дымка ясно -3.6 -5.3 88 -8 -8 очень
холодно
1033.0 960.2
С 2 7000 м дымка ясно -4.3 -5.8 89 -9 -9 холодно 1032.9 959.9
С 2 7000 м дымка ясно -4.9 -6.2 91 -9 -9 прохладно 1033.0 959.8
СЗ 2 7000 м дымка ясно -5.2 -6.5 91 -10 -10 очень
холодно
1033.0 959.7
С 1 7000 м дымка ясно -6.0 -7.1 92 -9 -9 холодно 1032.9 959.5
СЗ 2 7000 м дымка ясно -7.0 -8.1 92 -11 -11 холодно 1033.0 959.3
С 1 6000 м дымка ясно -6.7 -7.6 93 -9 -9 очень
холодно
1033.3 959.7 -7.7
СЗ 1 7000 м дымка 1/0
[Ci fib]
-6.8 -8.2 90 -9 -9 холодно 1033.8 960.1
С 1 8000 м дымка 1/0
[Ci fib]
-7.1 -8.1 93 -10 -9 прохладно 1034.0 960.2
штиль 0 10 км {туман} 1/0
[Ci fib]
-3.9 -5.1 91 -5 -3 холодно 1033.3 960.4
штиль 0 10 км 1/0
[Ci fib]
-2.9 -5.0 85 -4 0 прохладно 1033.6 960.9
СЗ 1 20 км 1/0
[Ci fib]
-0.8 -3.2 84 -3 +2 по сезону 1032.9 960.9
штиль 0 20 км 1/0
[Ci fib]
+1.9 -2.1 75 +1 +8 прохладно 1031.2 959.9
СЗ 1 20 км 1/0
[Ci fib]
+3.7 -1.1 71 +2 +8 по сезону 1029.9 959.2
ЮЗ 1 30 км 1/0
[Ci fib]
+7.4 -0.3 58 +7 +11 тепло 1028.1 958.5
штиль 0 30 км 1/0
[Ci fib]
+8.5 +0.7 58 +8 +11 тепло 1027.4 958.0
ЮВ 2 30 км ясно +8.6 +0.8 58 +8 +8 тепло 1027.3 957.9
ЮВ 1 30 км ясно +6.7 +0.7 66 +6 +6 тепло 1028.0 958.2
ЮВ 2 16 км ясно +4.0 -0.3 74 +2 +2 по сезону 1029.3 958.7 +9.5
Ю 2 12 км ясно +2.6 -0.8 78 0 0 по сезону 1029.9 958.9
С 2 8000 м ясно +0.2 -1.1 91 -4 -4 прохладно 1030.8 959.2
С 2 9000 м ясно -0.8 -1.8 93 -4 -4 холодно 1031.2 959.3
С 2 6000 м ясно -1.4 -2.2 94 -5 -5 прохладно 1031.3 959.2
С 2 7000 м дымка ясно -2.2 -2.9 95 -6 -6 прохладно 1031.7 959.4
С 2 5000 м дымка ясно -2.7 -3.4 95 -6 -6 холодно 1031.8 959.3
С 1 5000 м дымка ясно -3.3 -3.7 97 -6 -6 прохладно 1031.6 959.0
С 1 5000 м дымка ясно -4.5 -5.2 95 -7 -7 по сезону 1031.5 958.6
С 1 5000 м дымка ясно -5.1 -5.9 94 -8 -8 холодно 1031.6 958.5
СЗ 1 5000 м дымка ясно -5.6 -6.0 97 -8 -8 прохладно 1031.3 958.1
С 1 2000 м туман местами 1/1 1000 м
[St]
-6.3 -7.0 95 -9 -9 прохладно 1031.2 957.8
штиль 0 1700 м туман н/о -7.0 -7.5 96 -8 -8 холодно 1031.6 958.0 -7.7
СЗ 1 2400 м дымка {туман} 1/1 100 м
[St]
-7.0 -7.7 95 -8 -8 прохладно 1031.6 958.0
С 2 4000 м дымка 1/1 50 м
[St]
-7.0 -7.9 93 -11 -11 прохладно 1031.6 958.0
С 1 4000 м дымка 1/1 50 м
[St]
-4.9 -5.5 96 -7 -6 очень
холодно
1030.8 957.8
С 2 8000 м дымка ясно -1.9 -3.3 90 -5 -2 прохладно 1030.1 958.0
СЗ 1 15 км ясно -0.5 -3.2 82 -1 +5 по сезону 1029.5 957.8
СЗ 2 18 км {метель} н/о +1.5 -1.8 79 -1 +5 прохладно 1027.6 956.5
З 1 20 км ясно +4.8 -0.3 70 +4 +10 по сезону 1025.7 955.6
Ю 1 16 км ясно +6.8 +0.6 65 +6 +11 тепло 1024.2 954.7
ЮВ 3 25 км 3/0
[Cs]
+6.5 +0.3 65 +4 +6 по сезону 1023.7 954.2
ЮВ 2 25 км 5/0
[Ac und Cs]
+6.1 +0.5 67 +5 +5 тепло 1023.4 953.8
ЮВ 1 21 км 9/0
[Ac As Cs]
+4.8 +0.3 73 +4 +4 тепло 1023.3 953.4
Ю 2 13 км 10/0
[Ac As Cs]
+3.6 +0.2 78 +1 +1 по сезону 1023.6 953.3 +7.7
штиль 0 10 км 9/0
[Ac As Cs]
+0.7 -1.4 86 -0 -0 по сезону 1024.4 953.3
СЗ 1 6000 м дымка 4/0
[Cs]
-0.2 -1.3 92 -2 -2 по сезону 1024.2 952.9
С 2 6000 м 4/0
[Cs]
-0.9 -1.8 94 -5 -5 холодно 1023.9 952.4
С 2 6000 м 1/0
[Cs]
-1.2 -1.9 95 -5 -5 прохладно 1023.4 952.0
С 2 4000 м 6/0
[Cs]
-2.2 -2.9 95 -6 -6 по сезону 1023.4 951.7
С 2 6000 м 5/0
[Cs]
-2.3 -2.9 96 -6 -6 холодно 1023.0 951.3
С 2 6000 м 4/0
[Cs]
-2.4 -2.9 96 -6 -6 прохладно 1021.7 950.1
З 1 4600 м дымка н/о -2.8 -3.6 94 -4 -4 по сезону 1021.3 949.6
С 1 6000 м 8/5 1000 м
[Frnb Cs]
-1.8 -2.4 96 -4 -4 прохладно 1020.6 949.1
С 1 6000 м 8/5 1000 м
[Frnb Ci ing]
-1.3 -2.1 94 -4 -4 по сезону 1019.2 948.0
С 1 6000 м 8/5 1000 м
[Frnb Cs]
-0.9 -1.7 94 -3 -3 по сезону 1018.0 947.0
С 1 6000 м 9/5 1000 м
[Cu Sc Cs]
-0.5 -1.2 95 -3 -3 по сезону 1017.2 946.3 -3.1
СЗ 2 6000 м 9/6 300 м
[Cu Sc Cs]
-0.2 -1.0 94 -4 -4 по сезону 1016.8 946.0
СЗ 2 6000 м 10/10 1000 м
[Frnb]
+0.2 -0.5 95 -4 -4 по сезону 1016.5 945.9
С 3 6000 м 10/10 1000 м
[Frnb]
+0.8 +0.3 96 -4 -4 холодно 1015.7 945.3 1
С 1 2000 м 10/10 1000 м
[Frnb]
+1.4 +0.9 96 -1 -1 по сезону 1014.9 944.7
СЗ 3 30 км 10/10 1000 м
[Frnb]
+1.3 +0.8 96 -3 -3 по сезону 1014.8 944.6
С 1 1100 м слаб. дождь 10/10 100 м
[Frnb]
+2.0 +1.4 96 +1 +1 холодно 1013.5 943.6 0.4
СЗ 3 1200 м дымка {дождь} 10/10 100 м
[Frnb]
+2.8 +2.4 97 -1 -1 холодно 1012.1 942.5
С 2 2800 м дымка 10/10 100 м
[Frnb]
+3.7 +3.0 95 +1 +1 прохладно 1011.0 941.6
штиль 0 5000 м 10/10 300 м
[Frnb]
+5.6 +4.1 90 +5 +5 по сезону 1010.2 941.4 0.0
СЗ 3 3500 м дымка 10/10 300 м
[Frnb]
+3.0 +2.4 96 -1 -1 холодно 1010.9 941.3
С 2 1500 м дымка 9/9 300 м
[Frnb]
+3.1 +2.6 97 0 0 прохладно 1010.7 941.2
С 4 1800 м дымка 10/10 200 м
[Frnb]
+2.6 +2.3 98 -2 -2 очень
холодно
1011.2 941.6 +5.7 0.2
С 3 1800 м дымка 10/10 50 м
[Frnb]
+2.7 +2.4 98 -1 -1 холодно 1011.6 942.0
В 1 1600 м дымка 10/10 50 м
[Frnb]
+2.9 +2.7 99 +2 +2 по сезону 1012.0 942.4
ЮВ 1 1200 м туман местами 10/10 200 м
[Frnb]
+3.2 +2.9 98 +3 +3 по сезону 1012.1 942.6 0.7
Ю 2 2500 м дымка {туман} 10/10 200 м
[Frnb]
+4.3 +4.1 99 +1 +1 по сезону 1012.1 942.8
ЮВ 2 400 м туман 10/10 50 м
[Frnb]
+3.4 +3.0 97 0 0 по сезону 1013.1 943.6
ЮЗ 4 6000 м дымка {туман} 10/10 300 м
[Frnb]
+5.6 +5.1 97 +1 +1 по сезону 1012.6 943.6 0.3
Ю 5 8000 м дымка {туман} 10/10 200 м
[Frnb]
+5.6 +4.8 95 +1 +1 по сезону 1012.9 943.9
ЮВ 4 10 км {туман} 10/10 200 м
[Frnb]
+4.9 +4.3 96 +1 +1 тепло 1013.7 944.4
Ю 4 10 км 10/10 200 м
[Frnb]
+4.2 +3.5 95 -0 -0 по сезону 1014.5 945.0 0.0
ЮЗ 4 15 км 10/10 200 м
[Frnb]
+6.5 +5.7 95 +3 +3 тепло 1013.8 945.0
ЮЗ 5 20 км 10/10 300 м
[Frnb]
+5.9 +5.0 94 +2 +2 тепло 1014.1 945.1
ЮЗ 3 15 км 10/10 200 м
[Frnb]
+6.1 +5.4 95 +3 +3 по сезону 1014.8 945.8 +2.3 2.6
ЮЗ 2 17 км 10/10 200 м
[Frnb]
+5.4 +4.3 93 +3 +3 тепло 1015.2 946.0
Ю 2 15 км 10/10 300 м
[Frnb]
+5.9 +5.5 97 +3 +3 тепло 1015.1 946.0
ЮЗ 7 30 км 8/8 300 м
[Frnb Cs]
+6.9 +5.6 91 +2 +2 по сезону 1015.1 946.3
ЮЗ 6 30 км 8/6 300 м
[Frnb Ci fib]
+7.6 +5.7 88 +3 +4 по сезону 1015.6 946.9
ЮЗ 6 8000 м слаб. морось 9/9 300 м
[Frnb]
+7.8 +6.0 88 +3 +4 тепло 1016.0 947.3
ЮВ 5 21 км 10/9 300 м
[Frnb]
+6.5 +5.1 91 +2 +3 холодно 1015.7 946.7 0.0
Ю 5 24 км 8/8 300 м
[Frnb Cs]
+9.2 +6.9 86 +6 +7 по сезону 1013.9 945.7
Местоположение метеостанции Мадрид аэропорт (Испания): широта 40.45 долгота -3.55 высота над уровнем моря 582 м.
В архиве по умолчанию представлена погода в Мадрид аэропорту за последнюю неделю. Архивные данные за месяц целиком и за предыдущие месяцы, начиная с января 2011 года, Вы можете получить, выбрав интересующий диапазон дат из раскрывающегося списка и нажав кнопку "Найти!".
*Определитесь, кто Вы:
Внимание! Время в таблицах - всемирное. Для получения местного времени необходимо прибавить поправку, которая равна 1 ч.
Смотрите также архив погоды в соседних городах и на ближайших метеорологических станциях:
Партнеры нашего сайта:      
Пояснения к столбцам:
  • Ветер - указаны скорость ветра в м/с - средняя за 10 мин, порывы в срок и между сроками (в фигурных скобках) и направление, откуда дует ветер: С - северный,
  • СВ - северо-восточный, В - восточный, ЮВ - юго-восточный, Ю - южный, ЮЗ - юго-западный, З - западный, СЗ - северо-западный.
  • Видимость - горизонтальная дальность видимости в метрах или километрах. При видимости от 1 до 10 км при отсутствии осадков обычно наблюдается дымка, при ухудшении видимости до 1 км и менее - туман. В сухую погоду видимость может ухудшаться дымом, пылью или мглою.
  • Явления - указаны атмосферные явления, наблюдавшиеся в срок или в последний час перед сроком; фигурными скобками обозначены явления, наблюдавшиеся между сроками (за 1-3 часа до срока); квадратными скобками обозначены град или гололедные отложения с указанием их диаметра в мм.
  • Облачность - указаны через наклонную черту общая и нижняя облачность в баллах и высота нижней границы облаков в метрах; квадратными скобками обозначены формы облаков: Ci - перистые, Cs - перисто-слоистые, Cc - перисто-кучевые, Ac - высококучевые, As - высокослоистые, Sc - слоисто-кучевые, Ns - слоисто-дождевые, Cu - кучевые, Cb - кучево-дождевые. Подробнее классификацию облаков см. в Атласе облаков (PDF).
  • T - Температура воздуха - температура, измеренная на высоте 2 м над землей.
  • Td - Температура точки росы - температура, при понижении до которой содержащийся в воздухе водяной пар достигнет насыщения.
  • f - Относительная влажность воздуха - влажноcть воздуха, измеренная на высоте 2 м над землей.
  • Te - Эффективная температура - температура, которую ощущает одетый по сезону человек в тени. Характеристика душности погоды. При расчете учитывается влияние влажности воздуха и скорости ветра на теплоощущения человека.
  • Tes - Эффективная температура на солнце - температура, которую ощущает человек, с поправкой на солнечный нагрев. Характеристика знойности погоды. Зависит от высоты солнца над горизонтом, облачности и скорости ветра. Ночью, в пасмурную погоду, а также при ветре 12 м/с и более поправка равна нулю.
  • P - Атмосферное давление - приведенное к уровню моря атмосферное давление.
  • Po - Атмосферное давление - измеренное на уровне метеостанции атмосферное давление.
  • Tmin - Минимальная температура - минимум температуры воздуха на высоте 2 м над землей.
  • Tmax - Максимальная температура - максимум температуры воздуха на высоте 2 м над землей.
  • R - Количество осадков - Количество выпавших осадков за период времени, мм. При наведении курсора мыши на число - период времени, за который выпало указанное количество осадков.
  • R24 - Количество осадков - Количество выпавших осадков за 24 часа, мм.
  • S - Снежный покров - Высота снежного покрова, см. При наведении курсора мыши на число - состояние снежного покрова и степень покрытия местности в баллах.